Silvana, WA

5:26 PM PDT on August 29, 2016 (GMT -0700)
Arlington Municipal

Weather History for KAWO - October, 2013

Change the Weather History Date:

Tuesday, October 1, 2013

  Actual Average Record
Temperature  
Mean Temperature 52 °F -  
Max Temperature 57 °F 65 °F 73 °F (2008)
Min Temperature 48 °F 42 °F 33 °F (1996)
Degree Days  
Heating Degree Days 12    
Growing Degree Days 2 (Base 50)    
Moisture  
Dew Point 43 °F    
Average Humidity 74    
Maximum Humidity 87    
Minimum Humidity 58    
Precipitation  
Precipitation 0.01 in - - ()
Sea Level Pressure  
Sea Level Pressure 30.01 in    
Wind  
Wind Speed 12 mph (SSE)    
Max Wind Speed 22 mph    
Max Gust Speed 26 mph    
Visibility 10 miles    
Events      
Averages and records for this station are not official NWS values.
T = Trace of Precipitation, MM = Missing Value Source: NWS Daily Summary

Daily Weather History Graph

Daily Weather History Graph

Search for Another Location

Airport or City:

Trip Planner

Search our weather history database for the weather conditions in past years. The results will help you decide how hot, cold, wet, or windy it might be!

Date:

Astronomy

Oct. 01, 2013 Rise Set
Actual Time 7:08 AM PDT 6:47 PM PDT
Civil Twilight 6:37 AM PDT 7:18 PM PDT
Nautical Twilight 6:01 AM PDT 7:54 PM PDT
Astronomical Twilight 5:24 AM PDT 8:30 PM PDT
Moon 3:35 AM PDT (10/1) 5:03 PM PDT (10/1)
Length of Visible Light 12h 40m
Length of Day
11h 38m
Waning Crescent, 11% of the Moon is Illuminated
Oct 1
Waning Crescent
Oct 4
New
Oct 11
First Quarter
Oct 18
Full
Oct 26
Last Quarter

Hourly Weather History & Observations

Time (PDT) Temp. Dew Point Humidity Pressure Visibility Wind Dir Wind Speed Gust Speed Precip Events Conditions
12:15 AM 50.0 °F 42.8 °F 76% 29.92 in 10.0 mi SE 15.0 mph - N/A   Overcast
12:35 AM 51.8 °F 42.8 °F 71% 29.92 in 10.0 mi SE 12.7 mph 18.4 mph N/A   Overcast
12:55 AM 51.8 °F 42.8 °F 71% 29.93 in 10.0 mi SSE 11.5 mph - N/A   Overcast
1:15 AM 50.0 °F 42.8 °F 76% 29.94 in 10.0 mi SSE 8.1 mph - N/A   Overcast
1:35 AM 50.0 °F 42.8 °F 76% 29.93 in 10.0 mi SSE 9.2 mph - N/A   Overcast
1:55 AM 50.0 °F 42.8 °F 76% 29.93 in 10.0 mi SSE 10.4 mph - N/A   Overcast
2:15 AM 50.0 °F 42.8 °F 76% 29.93 in 10.0 mi SE 9.2 mph - N/A   Overcast
2:35 AM 51.8 °F 42.8 °F 71% 29.93 in 10.0 mi SSE 10.4 mph - N/A   Overcast
2:55 AM 50.0 °F 41.0 °F 71% 29.93 in 10.0 mi SSE 10.4 mph - N/A   Overcast
3:15 AM 50.0 °F 41.0 °F 71% 29.93 in 10.0 mi SSE 12.7 mph - N/A   Overcast
3:35 AM 50.0 °F 41.0 °F 71% 29.94 in 10.0 mi SSE 11.5 mph - N/A   Overcast
3:55 AM 48.2 °F 42.8 °F 82% 29.93 in 10.0 mi SSE 12.7 mph - N/A   Overcast
4:15 AM 50.0 °F 41.0 °F 71% 29.94 in 10.0 mi SSE 11.5 mph 18.4 mph N/A   Overcast
4:35 AM 50.0 °F 41.0 °F 71% 29.93 in 10.0 mi SSE 13.8 mph - N/A   Overcast
4:55 AM 50.0 °F 41.0 °F 71% 29.93 in 10.0 mi SE 12.7 mph - N/A   Overcast
5:15 AM 50.0 °F 41.0 °F 71% 29.94 in 10.0 mi SSE 11.5 mph - N/A   Overcast
5:35 AM 48.2 °F 41.0 °F 76% 29.94 in 10.0 mi SSE 13.8 mph 19.6 mph N/A   Overcast
5:55 AM 48.2 °F 42.8 °F 82% 29.95 in 10.0 mi SSE 10.4 mph - N/A   Overcast
6:15 AM 48.2 °F 41.0 °F 76% 29.95 in 10.0 mi SE 11.5 mph - N/A   Overcast
6:35 AM 48.2 °F 41.0 °F 76% 29.95 in 10.0 mi SE 11.5 mph - N/A   Overcast
6:55 AM 48.2 °F 41.0 °F 76% 29.95 in 10.0 mi SSE 9.2 mph - N/A   Overcast
7:15 AM 48.2 °F 41.0 °F 76% 29.95 in 10.0 mi SE 11.5 mph - N/A   Overcast
7:35 AM 48.2 °F 39.2 °F 71% 29.96 in 10.0 mi SE 11.5 mph 16.1 mph N/A   Overcast
7:55 AM 48.2 °F 39.2 °F 71% 29.97 in 10.0 mi SSE 11.5 mph - N/A   Overcast
8:15 AM 48.2 °F 39.2 °F 71% 29.97 in 10.0 mi SSE 12.7 mph - N/A   Overcast
8:35 AM 48.2 °F 39.2 °F 71% 29.98 in 10.0 mi SSE 8.1 mph - N/A   Overcast
8:55 AM 50.0 °F 41.0 °F 71% 29.98 in 10.0 mi South 6.9 mph - N/A   Overcast
9:15 AM 48.2 °F 42.8 °F 82% 29.97 in 10.0 mi SE 8.1 mph - N/A   Overcast
9:35 AM 48.2 °F 42.8 °F 82% 29.98 in 10.0 mi SSE 11.5 mph - N/A   Overcast
9:55 AM 48.2 °F 42.8 °F 82% 29.99 in 10.0 mi South 9.2 mph - N/A   Overcast
10:15 AM 48.2 °F 42.8 °F 82% 30.00 in 10.0 mi SE 11.5 mph - N/A   Mostly Cloudy
10:35 AM 50.0 °F 44.6 °F 82% 30.00 in 10.0 mi SSE 9.2 mph - N/A   Mostly Cloudy
10:55 AM 50.0 °F 44.6 °F 82% 30.01 in 10.0 mi SE 9.2 mph - N/A   Mostly Cloudy
11:15 AM 51.8 °F 44.6 °F 76% 30.01 in 10.0 mi SE 10.4 mph - N/A   Overcast
11:35 AM 53.6 °F 44.6 °F 72% 30.01 in 10.0 mi SE 10.4 mph - N/A   Overcast
11:55 AM 53.6 °F 44.6 °F 72% 30.01 in 10.0 mi SE 15.0 mph - N/A   Overcast
12:15 PM 53.6 °F 44.6 °F 72% 30.01 in 10.0 mi SSE 12.7 mph 19.6 mph N/A   Overcast
12:35 PM 55.4 °F 44.6 °F 67% 30.02 in 10.0 mi SSE 11.5 mph - N/A   Overcast
12:55 PM 53.6 °F 44.6 °F 72% 30.02 in 10.0 mi SSE 15.0 mph 20.7 mph N/A   Overcast
1:15 PM 53.6 °F 44.6 °F 72% 30.03 in 10.0 mi SSE 15.0 mph 20.7 mph N/A   Overcast
1:35 PM 55.4 °F 44.6 °F 67% 30.03 in 10.0 mi SSE 11.5 mph - N/A   Overcast
1:55 PM 55.4 °F 44.6 °F 67% 30.03 in 10.0 mi SE 16.1 mph 19.6 mph N/A   Overcast
2:15 PM 55.4 °F 42.8 °F 63% 30.03 in 10.0 mi SSE 11.5 mph - N/A   Mostly Cloudy
2:35 PM 55.4 °F 42.8 °F 63% 30.03 in 10.0 mi SSE 16.1 mph 19.6 mph N/A   Mostly Cloudy
2:55 PM 55.4 °F 42.8 °F 63% 30.04 in 10.0 mi SSE 16.1 mph - N/A   Overcast
3:15 PM 57.2 °F 42.8 °F 59% 30.04 in 10.0 mi South 15.0 mph - N/A   Mostly Cloudy
3:35 PM 55.4 °F 41.0 °F 58% 30.04 in 10.0 mi South 13.8 mph 17.3 mph N/A   Mostly Cloudy
3:55 PM 55.4 °F 41.0 °F 58% 30.05 in 10.0 mi SSE 13.8 mph 18.4 mph N/A   Mostly Cloudy
4:15 PM 55.4 °F 42.8 °F 63% 30.05 in 10.0 mi SSE 13.8 mph - N/A   Mostly Cloudy
4:35 PM 55.4 °F 42.8 °F 63% 30.06 in 10.0 mi SSE 9.2 mph - N/A   Mostly Cloudy
4:55 PM 53.6 °F 42.8 °F 67% 30.06 in 10.0 mi SSE 15.0 mph - N/A   Overcast
5:15 PM 53.6 °F 44.6 °F 72% 30.07 in 10.0 mi SE 11.5 mph - N/A   Overcast
5:35 PM 51.8 °F 44.6 °F 76% 30.07 in 10.0 mi SE 6.9 mph - N/A   Mostly Cloudy
5:55 PM 51.8 °F 44.6 °F 76% 30.07 in 10.0 mi SE 11.5 mph - N/A   Overcast
6:15 PM 51.8 °F 44.6 °F 76% 30.07 in 10.0 mi SE 13.8 mph 18.4 mph N/A   Overcast
6:35 PM 51.8 °F 44.6 °F 76% 30.08 in 10.0 mi SE 16.1 mph - N/A   Overcast
6:55 PM 51.8 °F 44.6 °F 76% 30.08 in 10.0 mi SE 15.0 mph - N/A   Overcast
7:15 PM 51.8 °F 42.8 °F 71% 30.08 in 10.0 mi SE 18.4 mph - N/A   Overcast
7:35 PM 51.8 °F 42.8 °F 71% 30.08 in 10.0 mi SE 21.9 mph 26.5 mph N/A   Overcast
7:55 PM 51.8 °F 42.8 °F 71% 30.09 in 10.0 mi SE 17.3 mph 21.9 mph N/A   Overcast
8:15 PM 51.8 °F 42.8 °F 71% 30.11 in 10.0 mi SSE 11.5 mph - N/A   Overcast
8:35 PM 51.8 °F 44.6 °F 76% 30.11 in 10.0 mi SE 13.8 mph - N/A   Overcast
8:55 PM 50.0 °F 44.6 °F 82% 30.11 in 10.0 mi South 6.9 mph - 0.01 in   Overcast
9:15 PM 50.0 °F 44.6 °F 82% 30.12 in 10.0 mi SE 10.4 mph - N/A   Overcast
9:35 PM 50.0 °F 44.6 °F 82% 30.12 in 9.0 mi South 8.1 mph - N/A   Overcast
9:55 PM 48.2 °F 44.6 °F 87% 30.12 in 10.0 mi SSE 10.4 mph - N/A   Overcast
10:15 PM 50.0 °F 44.6 °F 82% 30.12 in 10.0 mi SSE 11.5 mph - N/A   Overcast
10:35 PM 50.0 °F 44.6 °F 82% 30.12 in 10.0 mi SE 11.5 mph - N/A   Overcast
10:55 PM 50.0 °F 44.6 °F 82% 30.12 in 10.0 mi SSE 8.1 mph - N/A   Overcast
11:15 PM 50.0 °F 44.6 °F 82% 30.12 in 10.0 mi SSE 12.7 mph - N/A   Overcast
11:35 PM 50.0 °F 44.6 °F 82% 30.12 in 10.0 mi SSE 11.5 mph - N/A   Overcast
11:55 PM 50.0 °F 46.4 °F 87% 30.13 in 10.0 mi SSE 5.8 mph - N/A   Overcast